Stagione 2025 · Round 7

Emilia Romagna Grand Prix

2025-05-18 · Autodromo Enzo e Dino Ferrari · Italy · Emilia Romagna Grand Prix · 63Lap · 309.051km
Red Bull 1:31:33.199
McLaren +6.109
Vittoria di squadra 33pt P2 · P3 2-3
McLaren +12.956
Giro veloce
1:17.988 · L58
Ritiro
2
Andrea Kimi Antonelli L44 Esteban Ocon L27
Meteo
24°/43°
media aria/pista · asciutto · umidità 38%
Safety car
2
schierata al giro L29, L46
Uso gomme Direzione gara
Storylines · This Grand Prix & circuit
Più vittorie in questo GP
Max Verstappen attivo 4 vittorie
Conversione pole-vittoria 11/32 34.4%
Most DNFs · all-time P30
Most SC/VSC · all-time P14
Arrivo più ravvicinato · all-time P13
Circuito Info
63Lap 309.051km 32 gare held (1980–) Record del giro 1:15.484 · Lewis Hamilton (2020)
Record Watch · Active drivers ranked at this Grand Prix
P1 Max Verstappen 4 vittorie · GP #1
P2 Lewis Hamilton 1 vittorie · → Max Verstappen -3
P1 Lando Norris 4 · GP #1
P1 Max Verstappen 4 · GP #1
P1 Lewis Hamilton 2 · GP #1
P1 Max Verstappen 2 · GP #1
P1 Pierre Gasly 5 partenze · GP #1
P1 Lewis Hamilton 5 partenze · GP #1
P1 Charles Leclerc 5 partenze · GP #1
Gara Trace · position by lap
VSC · giri 29–31 SC · giri 46–53 partenza da fermo SG 1 6 11 16 21 26 31 36 41 46 51 56 61 Verstappen · sosta ai box L29 Verstappen · sosta ai box L46 Verstappen VER Verstappen VER Norris · sosta ai box L28 Norris · sosta ai box L46 Norris NOR Norris NOR Piastri · sosta ai box L13 Piastri · sosta ai box L30 Piastri PIA Piastri PIA Hamilton · sosta ai box L29 Hamilton · sosta ai box L46 Hamilton HAM Hamilton HAM Albon · sosta ai box L29 Albon · sosta ai box L47 Albon ALB Albon ALB Leclerc · sosta ai box L10 Leclerc · sosta ai box L29 Leclerc LEC Leclerc LEC Russell · sosta ai box L11 Russell · sosta ai box L29 Russell RUS Russell RUS Sainz · sosta ai box L11 Sainz · sosta ai box L29 Sainz SAI Sainz SAI Hadjar · sosta ai box L29 Hadjar · sosta ai box L46 Hadjar HAD Hadjar HAD Tsunoda · sosta ai box L29 Tsunoda TSU Tsunoda TSU Alonso · sosta ai box L12 Alonso · sosta ai box L46 Alonso ALO Alonso ALO Hülkenberg · sosta ai box L29 Hülkenberg HUL Hülkenberg HUL Gasly · sosta ai box L9 Gasly · sosta ai box L29 Gasly GAS Gasly GAS Lawson · sosta ai box L10 Lawson · sosta ai box L29 Lawson LAW Lawson LAW Stroll · sosta ai box L14 Stroll · sosta ai box L46 Stroll STR Stroll STR Colapinto · sosta ai box L22 Colapinto · sosta ai box L46 Colapinto COL Colapinto COL Bearman · sosta ai box L29 Bearman · sosta ai box L31 Bearman BEA Bearman BEA Bortoleto · sosta ai box L12 Bortoleto · sosta ai box L29 Bortoleto · sosta ai box L46 Bortoleto BOR Bortoleto BOR Antonelli · sosta ai box L29 Antonelli · ritiro L44 Antonelli ANT Antonelli ANT Ocon · sosta ai box L1 Ocon · ritiro L27 Ocon OCO Ocon OCO
SC·VSC sosta ai box penalità scontata ai box SG Griglia di partenza vettura ferma posizione a ogni giro (dal 1996)
PosPilotaTeamGrigliaGiroTempo / StatoPunti
1 1 Max Verstappen FL Red Bull 2 63 1:31:33.199 25
2 4 Lando Norris McLaren 4 63 +6.109 18
3 81 Oscar Piastri McLaren 1 63 +12.956 15
4 44 Lewis Hamilton Ferrari 12 63 +14.356 12
5 23 Alexander Albon Williams 7 63 +17.945 10
6 16 Charles Leclerc Ferrari 11 63 +20.774 8
7 63 George Russell Mercedes 3 63 +22.034 6
8 55 Carlos Sainz Williams 6 63 +22.898 4
9 6 Isack Hadjar RB F1 Team 9 63 +23.586 2
10 22 Yuki Tsunoda Red Bull 20 63 +26.446 1
11 14 Fernando Alonso Aston Martin 5 63 +27.250
12 27 Nico Hülkenberg Sauber 17 63 +30.296
13 10 Pierre Gasly Alpine F1 Team 10 63 +31.424
14 30 Liam Lawson RB F1 Team 15 63 +32.511
15 18 Lance Stroll Aston Martin 8 63 +32.993
16 43 Franco Colapinto Alpine F1 Team 16 63 +33.411
17 87 Oliver Bearman Haas F1 Team 19 63 +33.808
18 5 Gabriel Bortoleto Sauber 14 63 +38.572
R 12 Andrea Kimi Antonelli Mercedes 13 44 Retired
R 31 Esteban Ocon Haas F1 Team 18 27 Retired
PosPilotaTeamQ1Q2Q3Distacco dalla pole
1 81 Oscar Piastri McLaren 1:15.500 1:15.214 1:14.670 POLE Q3
2 1 Max Verstappen Red Bull 1:15.175 1:15.394 1:14.704 +0.034 Q3
3 63 George Russell Mercedes 1:15.852 1:15.334 1:14.807 +0.137 Q3
4 4 Lando Norris McLaren 1:15.894 1:15.261 1:14.962 +0.292 Q3
5 14 Fernando Alonso Aston Martin 1:15.695 1:15.442 1:15.431 +0.761 Q3
6 55 Carlos Sainz Williams 1:15.987 1:15.198 1:15.432 +0.528 Q2
7 23 Alexander Albon Williams 1:16.123 1:15.521 1:15.473 +0.803 Q3
8 18 Lance Stroll Aston Martin 1:15.817 1:15.497 1:15.581 +0.827 Q2
9 6 Isack Hadjar RB F1 Team 1:16.253 1:15.510 1:15.746 +0.840 Q2
10 10 Pierre Gasly Alpine F1 Team 1:15.937 1:15.505 1:15.787 +0.835 Q2
11 16 Charles Leclerc Ferrari 1:16.108 1:15.604 +0.934 Q2
12 44 Lewis Hamilton Ferrari 1:16.163 1:15.765 +1.095 Q2
13 12 Andrea Kimi Antonelli Mercedes 1:15.943 1:15.772 +1.102 Q2
14 5 Gabriel Bortoleto Sauber 1:16.340 1:16.260 +1.590 Q2
15 43 Franco Colapinto Alpine F1 Team 1:16.256 +1.586 Q1
16 30 Liam Lawson RB F1 Team 1:16.379 +1.709 Q1
17 27 Nico Hülkenberg Sauber 1:16.518 +1.848 Q1
18 31 Esteban Ocon Haas F1 Team 1:16.613 +1.943 Q1
19 87 Oliver Bearman Haas F1 Team 1:16.918 +2.248 Q1
20 22 Yuki Tsunoda Red Bull
Griglia di partenza
Ufficiale
10
15
30 Liam Lawson ▲1
16
Pit Lane Speeding · Alleged failure to follow Gara Director's instructions (Fast lane)
18
20
Final grid as classificato, including any dalla pit lane partenze. Source: Jolpica-F1. The arrow compares the grid slot with the le qualifiche classification; hover a drop to see the stewards document behind it.
Nessun dato per questa sessione.
PosPilotaGiro miglioreDistaccoGiri
1 81 Oscar Piastri 1:16.545 23
2 4 Lando Norris 1:16.577 +0.032 23
3 55 Carlos Sainz 1:16.597 +0.052 19
4 63 George Russell 1:16.599 +0.054 26
5 44 Lewis Hamilton 1:16.641 +0.096 22
6 10 Pierre Gasly 1:16.696 +0.151 21
7 1 Max Verstappen 1:16.905 +0.360 15
8 23 Alexander Albon 1:16.922 +0.377 21
9 5 Gabriel Bortoleto 1:16.925 +0.380 23
10 27 Nico Hülkenberg 1:16.998 +0.453 23
11 18 Lance Stroll 1:17.032 +0.487 23
12 16 Charles Leclerc 1:17.077 +0.532 23
13 12 Andrea Kimi Antonelli 1:17.094 +0.549 23
14 14 Fernando Alonso 1:17.121 +0.576 22
15 30 Liam Lawson 1:17.286 +0.741 22
16 22 Yuki Tsunoda 1:17.356 +0.811 18
17 43 Franco Colapinto 1:17.373 +0.828 21
18 87 Oliver Bearman 1:17.446 +0.901 20
19 6 Isack Hadjar 1:17.641 +1.096 19
20 31 Esteban Ocon 1:17.662 +1.117 20
Classified by best lap · source OpenF1 (2023+)
PosPilotaGiro miglioreDistaccoGiri
1 81 Oscar Piastri 1:15.293 28
2 4 Lando Norris 1:15.318 +0.025 25
3 10 Pierre Gasly 1:15.569 +0.276 29
4 63 George Russell 1:15.693 +0.400 23
5 1 Max Verstappen 1:15.735 +0.442 26
6 16 Charles Leclerc 1:15.768 +0.475 28
7 6 Isack Hadjar 1:15.792 +0.499 22
8 22 Yuki Tsunoda 1:15.827 +0.534 29
9 23 Alexander Albon 1:15.916 +0.623 29
10 55 Carlos Sainz 1:15.934 +0.641 29
11 44 Lewis Hamilton 1:15.943 +0.650 26
12 87 Oliver Bearman 1:16.009 +0.716 26
13 43 Franco Colapinto 1:16.044 +0.751 29
14 14 Fernando Alonso 1:16.220 +0.927 21
15 30 Liam Lawson 1:16.255 +0.962 22
16 5 Gabriel Bortoleto 1:16.339 +1.046 27
17 18 Lance Stroll 1:16.341 +1.048 23
18 12 Andrea Kimi Antonelli 1:16.406 +1.113 27
19 27 Nico Hülkenberg 1:16.419 +1.126 26
20 31 Esteban Ocon 1:16.420 +1.127 24
Classified by best lap · source OpenF1 (2023+)
PosPilotaGiro miglioreDistaccoGiri
1 4 Lando Norris 1:14.897 19
2 81 Oscar Piastri 1:14.997 +0.100 19
3 1 Max Verstappen 1:15.078 +0.181 17
4 12 Andrea Kimi Antonelli 1:15.399 +0.502 15
5 16 Charles Leclerc 1:15.451 +0.554 26
6 55 Carlos Sainz 1:15.457 +0.560 21
7 6 Isack Hadjar 1:15.508 +0.611 20
8 63 George Russell 1:15.662 +0.765 14
9 23 Alexander Albon 1:15.732 +0.835 20
10 44 Lewis Hamilton 1:15.787 +0.890 25
11 14 Fernando Alonso 1:15.819 +0.922 18
12 87 Oliver Bearman 1:15.944 +1.047 14
13 18 Lance Stroll 1:15.975 +1.078 22
14 30 Liam Lawson 1:15.977 +1.080 21
15 10 Pierre Gasly 1:15.990 +1.093 14
16 5 Gabriel Bortoleto 1:16.046 +1.149 17
17 22 Yuki Tsunoda 1:16.110 +1.213 14
18 43 Franco Colapinto 1:16.210 +1.313 14
19 27 Nico Hülkenberg 1:16.238 +1.341 16
20 31 Esteban Ocon 1:16.387 +1.490 15
Classified by best lap · source OpenF1 (2023+)
#PilotaTempo sul giroGiro
1 1 Max Verstappen 1:17.988 L58
2 1 Max Verstappen 1:18.037 L59
3 1 Max Verstappen 1:18.101 L56
4 1 Max Verstappen 1:18.214 L55
5 1 Max Verstappen 1:18.220 L57
6 44 Lewis Hamilton 1:18.265 L61
7 23 Alexander Albon 1:18.289 L63
8 4 Lando Norris 1:18.311 L63
9 1 Max Verstappen 1:18.399 L61
10 4 Lando Norris 1:18.432 L59
Top 10 più veloce race giri — #1 is the più veloce lap of la gara(FL).
Pit stop · a confronto
30s 35s 40s 45s 50s 55s mediana 30.3s Lando Norris · L28 · 29.513s Charles Leclerc · L10 · 29.634s Max Verstappen · L46 · 29.657s Liam Lawson · L10 · 29.695s George Russell · L11 · 29.784s Alexander Albon · L47 · 29.786s Yuki Tsunoda · L29 · 29.807s Gabriel Bortoleto · L46 · 29.917s Lewis Hamilton · L29 · 29.949s Lewis Hamilton · L46 · 29.950s Max Verstappen · L29 · 29.991s Andrea Kimi Antonelli · L29 · 30.051s Carlos Sainz · L11 · 30.080s Isack Hadjar · L46 · 30.096s Isack Hadjar · L29 · 30.123s Fernando Alonso · L12 · 30.163s Nico Hülkenberg · L29 · 30.184s Liam Lawson · L29 · 30.291s Franco Colapinto · L22 · 30.317s Alexander Albon · L29 · 30.471s Esteban Ocon · L1 · 30.506s Gabriel Bortoleto · L29 · 30.605s Oscar Piastri · L30 · 30.609s Carlos Sainz · L29 · 30.635s George Russell · L29 · 30.754s Fernando Alonso · L46 · 30.886s Gabriel Bortoleto · L12 · 30.906s Oscar Piastri · L13 · 30.973s Franco Colapinto · L46 · 31.107s Lance Stroll · L14 · 31.218s Oliver Bearman · L29 · 31.414s Pierre Gasly · L9 · 31.488s Lando Norris · L46 · 31.675s Charles Leclerc · L29 · 31.898s Pierre Gasly · L29 · 32.003s Lance Stroll · L46 · 34.496s Oliver Bearman · L31 · 56.757s
più veloce 29.513s Lando Norris più lenta 56.757s Oliver Bearman tempo di transito nella dalla pit lane — un punto per sosta
PilotaSostaGiroTempoTransito in dalla pit lane
31 Esteban Ocon 1 1 15:05:04 30.506s
10 Pierre Gasly 1 9 15:16:01 31.488s
16 Charles Leclerc 1 10 15:17:18 29.634s
30 Liam Lawson 1 10 15:17:24 29.695s
55 Carlos Sainz 1 11 15:18:40 30.080s
63 George Russell 1 11 15:18:39 29.784s
14 Fernando Alonso 1 12 15:20:01 30.163s
5 Gabriel Bortoleto 1 12 15:20:08 30.906s
81 Oscar Piastri 1 13 15:21:14 30.973s
18 Lance Stroll 1 14 15:22:49 31.218s
43 Franco Colapinto 1 22 15:34:00 30.317s
4 Lando Norris 1 28 15:41:39 29.513s
27 Nico Hülkenberg 1 29 15:43:56 30.184s
23 Alexander Albon 1 29 15:43:33 30.471s
1 Max Verstappen 1 29 15:42:57 29.991s
44 Lewis Hamilton 1 29 15:43:46 29.949s
22 Yuki Tsunoda 1 29 15:44:05 29.807s
87 Oliver Bearman 1 29 15:43:58 31.414s
12 Andrea Kimi Antonelli 1 29 15:43:46 30.051s
6 Isack Hadjar 1 29 15:43:45 30.123s
10 Pierre Gasly 2 29 15:44:19 32.003s
30 Liam Lawson 2 29 15:44:23 30.291s
16 Charles Leclerc 2 29 15:43:51 31.898s
63 George Russell 2 29 15:43:59 30.754s
55 Carlos Sainz 2 29 15:44:06 30.635s
5 Gabriel Bortoleto 2 29 15:44:25 30.605s
81 Oscar Piastri 2 30 15:45:35 30.609s
87 Oliver Bearman 2 31 15:47:40 56.757s
1 Max Verstappen 2 46 16:07:01 29.657s
18 Lance Stroll 2 46 16:08:49 34.496s
14 Fernando Alonso 2 46 16:08:46 30.886s
44 Lewis Hamilton 2 46 16:08:01 29.950s
43 Franco Colapinto 2 46 16:08:56 31.107s
4 Lando Norris 2 46 16:07:27 31.675s
6 Isack Hadjar 2 46 16:08:11 30.096s
5 Gabriel Bortoleto 3 46 16:09:00 29.917s
23 Alexander Albon 2 47 16:09:46 29.786s
soste
SG 10 20 30 40 50 L63
1
2
M28
H17
H18
4
2
M27
H18
H18·+1
81
2
M12
H17
H34
44
2
H28
M17
H18
23
2
M28
H18
H17
16
2
M9
H19
H35
63
2
M10·+3
H18
H35
55
2
M10
H18
H35
6
2
M28
H17
H18
22
1
H28
M35
14
2
M11·+3
H34·+1
M18·+4
27
1
H28
M35
10
2
M8
H20
H35
30
2
M9
H19
H35
18
2
M13·+3
H32·+1
M18·+6
43
2
M21
H24
H18
87
2
H28
H2
H33
5
3
M11
H17
H17
M18·+12
12
1
H28
M16
31
1
H27
S Soft M Medium H Hard I Intermediate W Wet SC·VSC sosta ai box penalità scontata ai box
Gara · larghezza barra = giri su quel treno, ·+N = montato usato con N giri pregressi · fonte OpenF1 (2023+)
Mescole designate per questo Gran Premio
C4 Dura C5 Media C6 Morbida
Pirelli designa tre delle sue mescole slick per ogni evento; più alto è il numero C, più morbida è la gomma. Documento FIA ↗
Più posizioni guadagnate in pista
16
+16
P11→P6
22
+15
P20→P10
43
+15
P16→P16
14
+13
P5→P11
81
+12
P1→P3
44
+12
P12→P4
27
+12
P17→P12
18
+12
P8→P15
Più posizioni perse
Fernando Alonso −19 Lance Stroll −19 George Russell −15
Gara · Somma delle posizioni guadagnate in pista giro per giro — esclusi il giro di partenza e i propri giri ai box. Dati dei giri di gara dal 1996.
PilotaTipoGiroScontataAssegnataMotivo
16 Charles Leclerc No further action Car 16 allegedly forced Car 23 off the track at turn 2. (No further action.) Doc 43 ↗
Car 16 allegedly forced Car 23 off the track at turn 2. (No further action.) Doc 43 ↗
Giro = giro in cui è stata inflitta la penalità · Scontata = giro in cui è stata scontata ai box (vuoto: sommata al tempo di gara)
Time, drive-through and stop-go penalties come from race control messages (OpenF1, 2023+). Griglia penalties never appear there — the stewards publish them as documents after the session — so they are worked back from the starting grid against the le qualifiche classification, which gives places actually lost rather than the figure written in the decision.
PilotaTipoGiroScontataAssegnataMotivo
22 Yuki Tsunoda Pit lane start The following Power Unit elements have been usati: 3rd Energy Store (ES) 3rd Control Electronics (CE) Components of a different specification have been changed whilst under Parc Ferme. All Power Unit elements were replaced with the approval of the FIA Tech (Required to start the Gara from the dalla pit lane.) Doc 38 ↗
The following Power Unit elements have been usati: 3rd Energy Store (ES) 3rd Control Electronics (CE) Components of a different specification have been changed whilst under Parc Ferme. All Power Unit elements were replaced with the approval of the FIA Tech (Required to start the Gara from the dalla pit lane.) Doc 38 ↗
43 Franco Colapinto Penalità in griglia ▼1 Entering fast lane in the dalla pit lane before a re-start time was confirmed. (Drop of 1 grid position for the next Gara in which the driver participates.) Doc 28 ↗
▼1 Entering fast lane in the dalla pit lane before a re-start time was confirmed. (Drop of 1 grid position for the next Gara in which the driver participates.) Doc 28 ↗
81 Oscar Piastri Giri cancellati TRACK LIMITS (PIT)
TRACK LIMITS (PIT)
Giro = giro in cui è stata inflitta la penalità · Scontata = giro in cui è stata scontata ai box (vuoto: sommata al tempo di gara)
Time, drive-through and stop-go penalties come from race control messages (OpenF1, 2023+). Griglia penalties never appear there — the stewards publish them as documents after the session — so they are worked back from the starting grid against the le qualifiche classification, which gives places actually lost rather than the figure written in the decision.
PilotaTipoGiroScontataAssegnataMotivo
43 Franco Colapinto Fine €600 Pit lane speeding – 85.1 km/h. (The competitor (BWT Alpine F1 Team) is fined €600) Doc 25 ↗
€600 Pit lane speeding – 85.1 km/h. (The competitor (BWT Alpine F1 Team) is fined €600) Doc 25 ↗
Giro = giro in cui è stata inflitta la penalità · Scontata = giro in cui è stata scontata ai box (vuoto: sommata al tempo di gara)
Time, drive-through and stop-go penalties come from race control messages (OpenF1, 2023+). Griglia penalties never appear there — the stewards publish them as documents after the session — so they are worked back from the starting grid against the le qualifiche classification, which gives places actually lost rather than the figure written in the decision.
PilotaTipoGiroScontataAssegnataMotivo
5 Gabriel Bortoleto No further action Car 5 allegedly overtook Car 14 under yellow flags at Turn 4. (No further action.) Doc 20 ↗
Car 5 allegedly overtook Car 14 under yellow flags at Turn 4. (No further action.) Doc 20 ↗
Giro = giro in cui è stata inflitta la penalità · Scontata = giro in cui è stata scontata ai box (vuoto: sommata al tempo di gara)
Time, drive-through and stop-go penalties come from race control messages (OpenF1, 2023+). Griglia penalties never appear there — the stewards publish them as documents after the session — so they are worked back from the starting grid against the le qualifiche classification, which gives places actually lost rather than the figure written in the decision.
PilotaTipoGiroScontataAssegnataMotivo
16 Charles Leclerc Fine €5,000 Failed to follow the procedures in TD 003Q 2 g.ii. (The competitor (Scuderia Ferrari HP) is fined €5,000.) Doc 16 ↗
€5,000 Failed to follow the procedures in TD 003Q 2 g.ii. (The competitor (Scuderia Ferrari HP) is fined €5,000.) Doc 16 ↗
55 Carlos Sainz Fine €1,000 Pit lane speeding – 93.7 km/h (The competitor (Atlassian Williams Racing) is fined €1000.) Doc 13 ↗
€1,000 Pit lane speeding – 93.7 km/h (The competitor (Atlassian Williams Racing) is fined €1000.) Doc 13 ↗
Giro = giro in cui è stata inflitta la penalità · Scontata = giro in cui è stata scontata ai box (vuoto: sommata al tempo di gara)
Time, drive-through and stop-go penalties come from race control messages (OpenF1, 2023+). Griglia penalties never appear there — the stewards publish them as documents after the session — so they are worked back from the starting grid against the le qualifiche classification, which gives places actually lost rather than the figure written in the decision.
DocTitoloOggettoPublished(CET)
1 Event Notes - Pirelli Preview ↗ 2025-05-14 12:46
2025-05-14 12:46 CET
2 Post-Gara Checks on Car numbers 81 and 16, 2025 Miami GP ↗ 2025-05-15 12:57
2025-05-15 12:57 CET
3 Car Display Procedure ↗ 2025-05-15 17:42
2025-05-15 17:42 CET
4 Gara Director's Event Notes ↗ 2025-05-15 18:44
2025-05-15 18:44 CET
5 Gara Director Event Notes - Circuito Map, Pit Lane, Emergency Exits, Quarantine Zone and Red Zones ↗ 2025-05-15 19:51
2025-05-15 19:51 CET
6 PU elements usati per driver up to now ↗ 2025-05-16 10:34
2025-05-16 10:34 CET
7 Self Scrutineering ↗ 2025-05-16 10:35
2025-05-16 10:35 CET
8 Car Presentation Submissions ↗ 2025-05-16 11:00
2025-05-16 11:00 CET
9 Entry List ↗ 2025-05-16 12:01
2025-05-16 12:01 CET
10 New PU elements for this Competition ↗ 2025-05-16 14:42
2025-05-16 14:42 CET
11 P1 Classification ↗ 2025-05-16 14:45
2025-05-16 14:45 CET
12 Tyre Operating Procedures, Car 16 ↗ 16 Charles Leclerc 2025-05-16 16:11
16 Charles Leclerc 2025-05-16 16:11 CET
13 Infringement - Car 55 - Pit Lane Speeding ↗ 55 Carlos Sainz 2025-05-16 16:56
55 Carlos Sainz 2025-05-16 16:56 CET
14 Summons - Car 16 - Tyre Operating Procedures ↗ 16 Charles Leclerc 2025-05-16 16:57
16 Charles Leclerc 2025-05-16 16:57 CET
15 P2 Classification ↗ 2025-05-16 18:20
2025-05-16 18:20 CET
16 Infringement - Car 16 - Tyre Operating Procedures ↗ 16 Charles Leclerc 2025-05-16 18:41
16 Charles Leclerc 2025-05-16 18:41 CET
17 Gara Director Notes - SC2 - SC1 Times ↗ 2025-05-16 18:41
2025-05-16 18:41 CET
18 P1 and P2 Scrutineering ↗ 2025-05-16 18:56
2025-05-16 18:56 CET
19 Summons - Car 5 - Alleged yellow flag infringement ↗ 5 Gabriel Bortoleto 2025-05-16 18:57
5 Gabriel Bortoleto 2025-05-16 18:57 CET
20 Decision - Car 5 - Alleged yellow flag infringement ↗ 5 Gabriel Bortoleto 2025-05-16 20:59
5 Gabriel Bortoleto 2025-05-16 20:59 CET
21 Event Notes - Pirelli Preview V2 ↗ 2025-05-17 09:03
2025-05-17 09:03 CET
22 Post-Qualifiche Procedure ↗ 2025-05-17 10:38
2025-05-17 10:38 CET
23 New PU elements for this Competition ↗ 2025-05-17 13:04
2025-05-17 13:04 CET
24 P3 Classification ↗ 2025-05-17 13:47
2025-05-17 13:47 CET
25 Infringement - Car 43 - Pit Lane Speeding ↗ 43 Franco Colapinto 2025-05-17 15:41
43 Franco Colapinto 2025-05-17 15:41 CET
26 Summons - Car 43 - Alleged failure to follow Gara Director's instructions (Fast lane) ↗ 43 Franco Colapinto 2025-05-17 17:24
43 Franco Colapinto 2025-05-17 17:24 CET
27 Provisional Qualifiche Classification ↗ 2025-05-17 17:50
2025-05-17 17:50 CET
28 Infringement - Car 43 - Alleged failure to follow Gara Director's instructions (Fast lane) ↗ 43 Franco Colapinto 2025-05-17 18:51
43 Franco Colapinto 2025-05-17 18:51 CET
29 Decision - Qualifiche SC2-SC1 Times ↗ 2025-05-17 18:55
2025-05-17 18:55 CET
30 Infringement - Qualifiche Deleted Giro Times ↗ 2025-05-17 19:06
2025-05-17 19:06 CET
31 Decision - Car 22 - Failing to set a lap time with 107% ↗ 22 Yuki Tsunoda 2025-05-17 19:25
22 Yuki Tsunoda 2025-05-17 19:25 CET
32 P3 and Qualifiche Scrutineering ↗ 2025-05-17 19:54
2025-05-17 19:54 CET
33 Final Qualifiche Classification ↗ 2025-05-17 20:00
2025-05-17 20:00 CET
34 Provisional Starting Griglia ↗ 2025-05-17 20:00
2025-05-17 20:00 CET
35 Post-Gara Procedure ↗ 2025-05-18 10:05
2025-05-18 10:05 CET
36 Pre-Gara Procedure ↗ 2025-05-18 10:06
2025-05-18 10:06 CET
37 Several Parc Fermé Issues concerning Car 22 ↗ 22 Yuki Tsunoda 2025-05-18 11:31
22 Yuki Tsunoda 2025-05-18 11:31 CET
38 Infringement - Car 22 - PU elements and Parc Ferme ↗ 22 Yuki Tsunoda 2025-05-18 12:29
22 Yuki Tsunoda 2025-05-18 12:29 CET
39 Parts and parameters been replaced and or changed during Parc Fermé ↗ 2025-05-18 13:56
2025-05-18 13:56 CET
40 Final Starting Griglia ↗ 2025-05-18 14:00
2025-05-18 14:00 CET
41 Provisional Gara Classification ↗ 2025-05-18 16:50
2025-05-18 16:50 CET
42 Infringement - Gara Deleted Giro Times ↗ 2025-05-18 16:55
2025-05-18 16:55 CET
43 Decision - Car 16 - Alleged forcing another driver off the track ↗ 16 Charles Leclerc 2025-05-18 17:33
16 Charles Leclerc 2025-05-18 17:33 CET
44 Gara Scrutineering ↗ 2025-05-18 19:23
2025-05-18 19:23 CET
45 Final Gara Classification ↗ 2025-05-18 19:25
2025-05-18 19:25 CET
46 Campionato Punti ↗ 2025-05-18 19:30
2025-05-18 19:30 CET
FIA official decisions and documents (fia.com) · PDF original PDF links
Record Basis · Calculation basis
Gara order is the final classification(post-race penalties applied) · le qualifiche session data 2003+ · lap times 1996+ · pit stops 2012+ (pit-lane transit, not stationary time) · Ritiro = Finished(Finished·+N Giri) non-Finished statuses
Fonti dei dati: Jolpica-F1 (Ergast compatible API) · weather·Direzione gara OpenF1 (2023+) · Last fetched: 2026-09-05 22:50